www.pogodaiklimat.ru

Погода и климат >> Архив погоды >> Россия >> Красноярский край >> Туруханск


ПОГОДА в Туруханске

АРХИВ ПОГОДЫ в Туруханске

Время (UTC), дата Ветер
(напр.,м/с)
 
Видим.   Явления Облачность Т
(С)
Тd
(С)
f
(%)
Тe
(С)
Тes
(С)
Комфортность P
(гПа)
Po
(гПа)
Тmin
(С)
Tmax
(С)
R
(мм)
R24
(мм)
S
(см)
09 19.09 Ю 3 20 км 10/10 300 м
[St]
+6.0 +5.5 97 +3 +3 1019.4 1014.2
12 19.09 Ю 3 20 км 10/10 300 м
[St]
+6.0 +5.8 99 +3 +3 1019.6 1014.4 +6.4 2
15 19.09 Ю 3 500 м туман 10/0
[]
+6.0 +5.3 95 +3 +3 1020.6 1015.3
18 19.09 ЮВ 1 20 км {туман} 10/10 300 м
[St]
+6.0 +5.5 97 +5 +5 1020.4 1015.1
21 19.09 ЮВ 2 20 км 10/10 300 м
[St]
+6.2 +5.8 97 +4 +4 1019.9 1014.7
00 20.09 ЮВ 3 4000 м слабый ливневой дождь 10/10 300 м
[Cb cap]
+6.6 +6.2 97 +3 +3 1019.6 1014.5 +5.9 0.9
03 20.09 Ю 4 4000 м слабый дождь 10/10 300 м
[Sc]
+7.7 +7.3 97 +4 +4 1019.2 1014.1
06 20.09 Ю 4 10 км слабая морось {дождь} 10/10 300 м
[St]
+9.7 +8.5 92 +7 +7 1019.0 1013.9
09 20.09 Ю 6 20 км в посл. час дождь {морось} 10/10 300 м
[Sc]
+9.8 +9.0 95 +6 +6 1018.4 1013.3
12 20.09 Ю 3 20 км {дождь, морось} 9/6 300 м
[Sc Ac trans Ci fib]
+10.4 +8.8 90 +8 +8 1018.2 1013.1 +11.0 0.9
15 20.09 Ю 3 20 км 8/6 600 м
[Sc Ci fib]
+9.2 +8.0 92 +7 +7 1018.7 1013.6
18 20.09 Ю 2 20 км 6/5 600 м
[Sc Ci fib]
+8.9 +7.9 93 +7 +7 1018.7 1013.6
21 20.09 Ю 2 20 км 6/5 600 м
[Sc Ci fib]
+8.2 +6.9 92 +6 +6 1018.7 1013.6
00 21.09 Ю 2 20 км 9/6 600 м
[Sc Cs]
+7.6 +5.6 87 +5 +5 1018.3 1013.2 +7.4
03 21.09 Ю 4 20 км 9/6 600 м
[Sc Ac trans Ci fib]
+8.5 +6.6 88 +5 +6 1018.4 1013.3
06 21.09 Ю 4 50 км 9/4 600 м
[Sc Ac trans Ci fib]
+12.3 +4.4 58 +11 +11 1017.8 1012.7
09 21.09 Ю 5 50 км 9/6 600 м
[Sc Ac trans Ci fib]
+14.0 +3.7 50 +12 +13 1016.7 1011.7
12 21.09 ЮВ 1
{10}
50 км 9/6 600 м
[Sc Cs]
+11.0 +3.8 61 +11 +11 1016.9 1011.8 +14.6
15 21.09 ЮВ 1 20 км 9/4 600 м
[Sc Ci fib]
+9.1 +3.0 66 +9 +9 1016.6 1011.5
18 21.09 Ю 3 20 км 8/3 600 м
[Sc Ci fib]
+8.8 +3.7 70 +6 +6 1016.3 1011.2
21 21.09 ЮВ 1 20 км 6/3 600 м
[Sc Ci fib]
+8.0 +3.1 71 +7 +7 1015.9 1010.8
00 22.09 Ю 4 20 км 8/3 600 м
[Sc Ac trans Ci fib]
+8.4 +3.8 73 +5 +5 1014.9 1009.8 +4.5
03 22.09 Ю 5 50 км 9/3 1000 м
[Sc Cs]
+10.4 +3.6 63 +8 +8 1014.8 1009.7
06 22.09 Ю 4 50 км 9/3 1000 м
[Sc Cs]
+13.2 +3.4 51 +12 +13 1014.6 1009.6
09 22.09 Ю 4 50 км 9/4 600 м
[Sc Ac trans Ci fib]
+16.2 +2.5 40 +16 +16 1012.4 1007.3
12 22.09 Ю 3 20 км {ливн. осадки} 8/8 300 м
[Cb cap]
+13.2 +4.5 56 +12 +12 1012.5 1007.5 +16.2 0.0
15 22.09 Ю 2 20 км {ливн. осадки} 9/9 300 м
[Cb cap]
+11.4 +7.0 74 +10 +10 1013.0 1008.0
18 22.09 Ю 4 20 км {ливн. осадки} 8/8 300 м
[Cb cap]
+10.9 +6.4 74 +9 +9 1013.2 1008.1
21 22.09 Ю 2 20 км 8/8 300 м
[Cb cap]
+8.7 +5.1 78 +7 +7 1013.4 1008.3
00 23.09 ЮВ 1 20 км 9/4 600 м
[Sc Ci fib]
+7.2 +5.9 91 +6 +6 1013.3 1008.2 +7.0 0.0
03 23.09 Ю 3 20 км 9/8 600 м
[Sc Ci fib]
+9.4 +5.9 79 +7 +7 1012.6 1007.5 +6.7
06 23.09 Ю 3 20 км 9/9 600 м
[Sc]
+13.0 +6.8 66 +12 +12 1011.7 1006.7
09 23.09 Ю 4 20 км 9/9 600 м
[Sc]
+13.4 +7.7 68 +12 +12 1010.2 1005.2
12 23.09 Ю 3 50 км 8/6 600 м
[Sc Ac trans]
+13.0 +8.2 73 +12 +12 1009.6 1004.6 +13.7
15 23.09 Ю 4 20 км 8/8 600 м
[Sc]
+11.9 +7.6 75 +10 +10 1009.1 1004.1
18 23.09 Ю 3 20 км 9/6 600 м
[Sc Ci fib]
+10.8 +8.8 87 +9 +9 1008.1 1003.0
21 23.09 ЮЗ 2 20 км 9/9 600 м
[Sc]
+10.2 +8.6 90 +9 +9 1006.9 1001.8
00 24.09 ЮЗ 2 10 км слабый ливневой дождь 10/10 300 м
[Cb cap]
+9.2 +8.6 96 +7 +7 1006.3 1001.2 +9.0 0.6
03 24.09 Ю 2 10 км слабый ливневой дождь 10/10 300 м
[Cb cap]
+8.2 +8.0 99 +6 +6 1005.3 1000.2 +8.0
06 24.09 ЮЗ 3 1000 м морось {ливн. осадки} 10/10 600 м
[St]
+8.2 +7.8 97 +5 +5 1005.1 1000.0
09 24.09 ЮЗ 2 1000 м дождь {морось} 10/0 300 м
[As op]
+8.5 +7.9 96 +6 +7 1005.3 1000.2
12 24.09 СЗ 1 4000 м слабый дождь {морось} 10/10 300 м
[Frnb Ns]
+8.9 +8.5 97 +8 +8 1005.9 1000.8 +9.2 9
15 24.09 СЗ 2 20 км {дождь} 10/10 300 м
[Sc]
+8.5 +7.7 95 +6 +6 1006.2 1001.1
18 24.09 С 2 20 км {дождь} 10/10 300 м
[Sc]
+7.6 +6.7 94 +5 +5 1006.5 1001.4
21 24.09 С 4 20 км 10/10 300 м
[Sc]
+6.6 +5.2 91 +3 +3 1006.7 1001.6
00 25.09 С 4 20 км 10/10 300 м
[Sc]
+5.8 +4.2 89 +2 +2 1007.6 1002.4 +5.7 0.3
03 25.09 С 3 20 км 10/10 1000 м
[Sc]
+5.5 +3.6 88 +2 +2 1008.5 1003.4 +5.0
06 25.09 С 3 20 км 10/10 1000 м
[Sc]
+5.3 +4.8 97 +2 +2 1009.2 1004.3
09 25.09 С 2 20 км 10/10 1000 м
[Sc]
+7.1 +2.8 74 +5 +5 1010.5 1005.4
12 25.09 З 1 20 км 9/9 1000 м
[Sc]
+7.1 +3.8 80 +6 +6 1011.3 1006.2 +7.4
15 25.09 СЗ 3 20 км 9/9 600 м
[Sc]
+5.9 +2.8 80 +3 +3 1012.5 1007.3
18 25.09 СЗ 3 20 км 9/9 600 м
[Sc]
+4.2 +2.5 89 0 0 1013.4 1008.2
21 25.09 СЗ 2 20 км 10/10 600 м
[Sc]
+4.3 +2.6 89 +1 +1 1014.2 1009.0
00 26.09 С 1 20 км 10/10 600 м
[Sc]
+3.9 +2.7 92 +2 +2 1015.3 1010.1 +3.9
03 26.09 ЮЗ 2 20 км 10/10 600 м
[Sc]
+3.9 +2.7 92 +1 +1 1016.0 1010.8 +3.5
06 26.09 Ю 3 20 км 10/10 600 м
[Sc]
+4.1 +2.6 90 0 0 1015.9 1010.7

 

Местоположение метеостанции Туруханск (Красноярский край, Россия): широта 65.78 долгота 87.93 высота над уровнем моря 38 м.

В архиве по умолчанию представлена погода в Туруханске за последнюю неделю. Архивные данные за месяц целиком и за предыдущие месяцы, начиная с января 2011 года, Вы можете получить, выбрав интересующий диапазон дат из раскрывающегося списка и нажав кнопку "Ввод!".


*Определитесь, кто Вы:
робот инопланетянин человек

Внимание! Время в таблицах - всемирное. Для получения местного времени необходимо прибавить поправку, которая в Туруханске равна 7 ч.

Смотрите также архив погоды в соседних городах и на ближайших метеорологических станциях:

Погода в Курейке (Красноярский край, Россия) (83 км)
Погода в Большом Пороге (Эвенкия, Россия) (98 км)
Погода в Светлогорске (Красноярский край, Россия) (132 км)
Погода в Верещагино (Красноярский край, Россия) (174 км)
Погода в Горбиачине (Красноярский край, Россия) (189 км)
Погода в Игарке (Красноярский край, Россия) (197 км)
Погода в Советской Речке (Красноярский край, Россия) (218 км)
Погода в Красноселькупске (Ямало-Ненецкий АО, Россия) (251 км)
Погода в Снежногорске (Красноярский край, Россия) (258 км)
Погода в Агате (Эвенкия, Россия) (276 км)

Пояснения к столбцам:

Ветер - указаны скорость ветра в м/с - средняя за 10 мин, порывы в срок и между сроками (в фигурных скобках) и направление, откуда дует ветер: С - северный, СВ - северо-восточный, В - восточный, ЮВ - юго-восточный, Ю - южный, ЮЗ - юго-западный, З - западный, СЗ - северо-западный.
Видимость - горизонтальная дальность видимости в метрах или километрах. При видимости от 1 до 10 км при отсутствии осадков обычно наблюдается дымка, при ухудшении видимости до 1 км и менее - туман. В сухую погоду видимость может ухудшаться дымом, пылью или мглою.
Явления - указаны атмосферные явления, наблюдавшиеся в срок или в последний час перед сроком; фигурными скобками обозначены явления, наблюдавшиеся между сроками (за 1-3 часа до срока); квадратными скобками обозначены град или гололедные отложения с указанием их диаметра в мм.
Облачность - указаны через наклонную черту общая и нижняя облачность в баллах и высота нижней границы облаков в метрах; квадратными скобками обозначены формы облаков: Ci - перистые, Cs - перисто-слоистые, Cc - перисто-кучевые, Ac - высококучевые, As - высокослоистые, Sc - слоисто-кучевые, Ns - слоисто-дождевые, Cu - кучевые, Cb - кучево-дождевые. Подробнее классификацию облаков см. в Атласе облаков (PDF).
T - Температура воздуха - температура, измеренная на высоте 2 м над землей.
Td - Температура точки росы - температура, при понижении до которой содержащийся в воздухе водяной пар достигнет насыщения.
f - Относительная влажность воздуха - влажноcть воздуха, измеренная на высоте 2 м над землей.
Te - Эффективная температура - температура, которую ощущает одетый по сезону человек в тени. Характеристика душности погоды. При расчете учитывается влияние влажности воздуха и скорости ветра на теплоощущения человека.
Tes - Эффективная температура на солнце - температура, которую ощущает человек, с поправкой на солнечный нагрев. Характеристика знойности погоды. Зависит от высоты солнца над горизонтом, облачности и скорости ветра. Ночью, в пасмурную погоду, а также при ветре 12 м/с и более поправка равна нулю.
P - Атмосферное давление - приведенное к уровню моря атмосферное давление.
Po - Атмосферное давление - измеренное на уровне метеостанции атмосферное давление.
Tmin - Минимальная температура - минимум температуры воздуха на высоте 2 м над землей.
Tmax - Максимальная температура - максимум температуры воздуха на высоте 2 м над землей.
R - Количество осадков - Количество выпавших осадков за период времени, мм. При наведении курсора мыши на число - период времени, за который выпало указанное количество осадков.
R24 - Количество осадков - Количество выпавших осадков за 24 часа, мм.
S - Снежный покров - Высота снежного покрова, см. При наведении курсора мыши на число - состояние снежного покрова и степень покрытия местности в баллах.